Location: Daerah Kuala Lumpur
(3.1167°N, 101.6833°E)
Time: 14:19:05
(UTC+00:00)

BlueWalker 3 - Pass Details

Date: 19 February 2026
Orbit: 451 x 458 km, 53.2° (Epoch: 6 March)

Event Time Altitude Azimuth Distance (km) Brightness Sun altitude
Exits shadow 22:02:03 24° 190° (S) 975 3.4 -21.4°
Maximum altitude 22:03:54 51° 123° (ESE) 576 2.5 -21.0°
Drops below altitude 10° 22:07:23 10° 47° (NE) 1,589 4.9 -20.1°
Sets 22:09:33 0° 42° (NE) 2,459 5.9 -19.6°
